When you browse on this site, cookies collect data to enhance your experience and personalize the content and advertising you see.
Visit our Privacy Policy to learn more. By continuing to use the site, you agree to this use of cookies and data.
  • In Germany
  • List of Countries
  • For 7 days
  • Water Temperature
  • Weather Map
  • Weather Widgets
  • user-avatar
    Login

    Hourly Weather Oran

    Today, 27 May, Wednesday

    Time Temperature Precipitation Wind Pressure Humidity
    00:00 +21°C° 0.2 mm 4 mps 754 mmHg 77%
    01:00 +21°C° 0.4 mm 4 mps 754 mmHg 79%
    02:00 +21°C° 0.4 mm 4 mps 754 mmHg 80%
    03:00 +21°C° 0.4 mm 4 mps 754 mmHg 81%
    04:00 +21°C° 0.5 mm 5 mps 754 mmHg 81%
    05:00 +21°C° 0.5 mm 5 mps 754 mmHg 81%
    06:00 +21°C° 0.5 mm 6 mps 754 mmHg 81%
    07:00 +21°C° 0.7 mm 5 mps 754 mmHg 78%
    08:00 +22°C° 0.7 mm 4 mps 755 mmHg 75%
    09:00 +24°C° 0.7 mm 3 mps 755 mmHg 72%
    10:00 +25°C° 0.2 mm 4 mps 755 mmHg 68%
    11:00 +26°C° 0.2 mm 5 mps 755 mmHg 65%
    12:00 +27°C° 0.2 mm 6 mps 754 mmHg 61%
    13:00 +27°C° 0 mm 7 mps 754 mmHg 61%
    14:00 +27°C° 0 mm 7 mps 754 mmHg 60%
    15:00 +27°C° 0 mm 8 mps 754 mmHg 59%
    16:00 +26°C° 0 mm 8 mps 754 mmHg 61%
    17:00 +26°C° 0 mm 7 mps 754 mmHg 62%
    18:00 +24°C° 0 mm 7 mps 754 mmHg 64%
    19:00 +23°C° 0 mm 6 mps 755 mmHg 67%
    20:00 +23°C° 0 mm 5 mps 755 mmHg 69%
    21:00 +22°C° 0 mm 4 mps 756 mmHg 72%
    22:00 +22°C° 0 mm 4 mps 755 mmHg 74%
    23:00 +21°C° 0 mm 5 mps 755 mmHg 76%

    Tomorrow, 28 May, Thursday

    Time Temperature Precipitation Wind Pressure Humidity
    00:00 +21°C° 0 mm 5 mps 755 mmHg 78%
    01:00 +21°C° 0 mm 4 mps 754 mmHg 80%
    02:00 +21°C° 0 mm 4 mps 754 mmHg 83%
    03:00 +20°C° 0 mm 4 mps 754 mmHg 85%
    04:00 +20°C° 0.2 mm 4 mps 754 mmHg 84%
    05:00 +21°C° 0.2 mm 4 mps 754 mmHg 84%
    06:00 +21°C° 0.2 mm 5 mps 754 mmHg 83%
    07:00 +23°C° 0.5 mm 5 mps 754 mmHg 75%
    08:00 +25°C° 0.5 mm 5 mps 754 mmHg 67%
    09:00 +27°C° 0.5 mm 6 mps 754 mmHg 59%
    10:00 +28°C° 0.2 mm 6 mps 754 mmHg 57%
    11:00 +28°C° 0.2 mm 7 mps 753 mmHg 55%
    12:00 +29°C° 0.2 mm 8 mps 753 mmHg 52%
    13:00 +29°C° 0.3 mm 8 mps 752 mmHg 54%
    14:00 +28°C° 0.3 mm 8 mps 752 mmHg 55%
    15:00 +28°C° 0.3 mm 8 mps 752 mmHg 56%
    16:00 +27°C° 0.5 mm 6 mps 752 mmHg 58%
    17:00 +27°C° 0.5 mm 5 mps 752 mmHg 59%
    18:00 +27°C° 0.5 mm 4 mps 752 mmHg 60%
    19:00 +26°C° 0.4 mm 5 mps 753 mmHg 65%
    20:00 +25°C° 0.4 mm 5 mps 753 mmHg 70%
    21:00 +22°C° 0.4 mm 6 mps 754 mmHg 75%
    22:00 +22°C° 0.2 mm 5 mps 753 mmHg 78%
    23:00 +22°C° 0.2 mm 4 mps 753 mmHg 81%

    Day after tomorrow, 29 May, Friday

    Time Temperature Precipitation Wind Pressure Humidity
    00:00 +21°C° 0.2 mm 3 mps 752 mmHg 84%
    01:00 +21°C° 0.1 mm 3 mps 752 mmHg 85%
    02:00 +21°C° 0.1 mm 4 mps 752 mmHg 86%
    03:00 +21°C° 0.1 mm 4 mps 751 mmHg 87%
    04:00 +21°C° 0 mm 4 mps 751 mmHg 87%
    05:00 +21°C° 0 mm 4 mps 751 mmHg 87%
    06:00 +21°C° 0 mm 4 mps 751 mmHg 87%
    07:00 +22°C° 0 mm 4 mps 751 mmHg 81%
    08:00 +23°C° 0 mm 4 mps 751 mmHg 75%
    09:00 +25°C° 0 mm 4 mps 751 mmHg 68%
    10:00 +26°C° 0 mm 5 mps 751 mmHg 65%
    11:00 +27°C° 0 mm 5 mps 751 mmHg 62%
    12:00 +28°C° 0 mm 6 mps 751 mmHg 59%
    13:00 +28°C° 0 mm 6 mps 750 mmHg 58%
    14:00 +28°C° 0 mm 6 mps 750 mmHg 58%
    15:00 +28°C° 0 mm 7 mps 749 mmHg 58%
    16:00 +27°C° 0 mm 6 mps 749 mmHg 61%
    17:00 +26°C° 0 mm 6 mps 749 mmHg 64%
    18:00 +24°C° 0 mm 6 mps 748 mmHg 67%
    19:00 +23°C° 0 mm 5 mps 749 mmHg 70%
    20:00 +23°C° 0 mm 5 mps 749 mmHg 73%
    21:00 +22°C° 0 mm 4 mps 750 mmHg 75%
    22:00 +22°C° 0 mm 3 mps 750 mmHg 76%
    23:00 +21°C° 0 mm 3 mps 750 mmHg 77%

    30 May, Saturday

    Time Temperature Precipitation Wind Pressure Humidity
    00:00 +21°C° 0 mm 2 mps 750 mmHg 78%
    01:00 +21°C° 0 mm 2 mps 749 mmHg 80%
    02:00 +20°C° 0 mm 3 mps 749 mmHg 83%
    03:00 +20°C° 0 mm 3 mps 749 mmHg 85%
    04:00 +20°C° 0 mm 3 mps 749 mmHg 85%
    05:00 +20°C° 0 mm 3 mps 749 mmHg 85%
    06:00 +20°C° 0 mm 3 mps 749 mmHg 84%
    07:00 +21°C° 0 mm 3 mps 749 mmHg 79%
    08:00 +22°C° 0 mm 3 mps 750 mmHg 73%
    09:00 +24°C° 0 mm 3 mps 750 mmHg 68%
    10:00 +26°C° 0 mm 4 mps 750 mmHg 62%
    11:00 +27°C° 0 mm 4 mps 749 mmHg 56%
    12:00 +29°C° 0 mm 5 mps 749 mmHg 50%
    13:00 +29°C° 0 mm 6 mps 749 mmHg 49%
    14:00 +29°C° 0 mm 7 mps 749 mmHg 49%
    15:00 +29°C° 0 mm 7 mps 748 mmHg 48%
    16:00 +28°C° 0 mm 7 mps 748 mmHg 48%
    17:00 +27°C° 0 mm 7 mps 748 mmHg 49%
    18:00 +26°C° 0 mm 6 mps 748 mmHg 49%
    19:00 +24°C° 0 mm 6 mps 748 mmHg 51%
    20:00 +25°C° 0 mm 5 mps 749 mmHg 54%
    21:00 +23°C° 0 mm 4 mps 749 mmHg 57%
    22:00 +22°C° 0 mm 4 mps 749 mmHg 60%
    23:00 +22°C° 0 mm 3 mps 749 mmHg 62%

    31 May, Sunday

    Time Temperature Precipitation Wind Pressure Humidity
    00:00 +23°C° 0 mm 2 mps 749 mmHg 65%
    01:00 +23°C° 0 mm 2 mps 749 mmHg 64%
    02:00 +23°C° 0 mm 2 mps 748 mmHg 63%
    03:00 +23°C° 0 mm 2 mps 748 mmHg 62%
    04:00 +23°C° 0 mm 2 mps 748 mmHg 61%
    05:00 +23°C° 0 mm 2 mps 748 mmHg 61%
    06:00 +24°C° 0 mm 2 mps 748 mmHg 60%
    07:00 +24°C° 0 mm 2 mps 748 mmHg 57%
    08:00 +25°C° 0 mm 2 mps 749 mmHg 53%
    09:00 +26°C° 0 mm 2 mps 749 mmHg 50%
    10:00 +27°C° 0 mm 3 mps 749 mmHg 47%
    11:00 +28°C° 0 mm 3 mps 749 mmHg 45%
    12:00 +29°C° 0 mm 3 mps 749 mmHg 43%
    13:00 +29°C° 0 mm 3 mps 749 mmHg 42%
    14:00 +30°C° 0 mm 3 mps 749 mmHg 42%
    15:00 +30°C° 0 mm 3 mps 749 mmHg 41%
    16:00 +29°C° 0 mm 3 mps 749 mmHg 43%
    17:00 +28°C° 0 mm 3 mps 749 mmHg 44%
    18:00 +27°C° 0 mm 2 mps 749 mmHg 46%
    19:00 +27°C° 0 mm 2 mps 749 mmHg 48%
    20:00 +26°C° 0 mm 2 mps 750 mmHg 50%
    21:00 +25°C° 0 mm 3 mps 750 mmHg 52%
    22:00 +25°C° 0 mm 2 mps 750 mmHg 54%
    23:00 +24°C° 0 mm 2 mps 750 mmHg 56%

    1 June, Monday

    Time Temperature Precipitation Wind Pressure Humidity
    00:00 +24°C° 0 mm 1 mps 750 mmHg 59%
    01:00 +23°C° 0 mm 1 mps 750 mmHg 63%
    02:00 +23°C° 0 mm 2 mps 749 mmHg 67%
    03:00 +21°C° 0 mm 2 mps 749 mmHg 71%
    04:00 +22°C° 0 mm 1 mps 749 mmHg 72%
    05:00 +22°C° 0 mm 1 mps 749 mmHg 73%
    06:00 +22°C° 0 mm 1 mps 749 mmHg 74%
    07:00 +24°C° 0 mm 1 mps 749 mmHg 67%
    08:00 +25°C° 0 mm 1 mps 749 mmHg 60%
    09:00 +27°C° 0 mm 1 mps 750 mmHg 52%
    10:00 +28°C° 0 mm 2 mps 749 mmHg 48%
    11:00 +29°C° 0 mm 2 mps 749 mmHg 45%
    12:00 +30°C° 0 mm 3 mps 749 mmHg 41%
    13:00 +30°C° 0 mm 3 mps 749 mmHg 41%
    14:00 +30°C° 0 mm 3 mps 749 mmHg 41%
    15:00 +30°C° 0 mm 3 mps 748 mmHg 41%
    16:00 +29°C° 0 mm 3 mps 748 mmHg 43%
    17:00 +28°C° 0 mm 2 mps 748 mmHg 44%
    18:00 +27°C° 0 mm 2 mps 748 mmHg 46%
    19:00 +26°C° 0 mm 2 mps 748 mmHg 51%
    20:00 +25°C° 0 mm 2 mps 748 mmHg 55%
    21:00 +24°C° 0 mm 2 mps 749 mmHg 60%
    22:00 +24°C° 0 mm 2 mps 748 mmHg 63%
    23:00 +22°C° 0 mm 3 mps 748 mmHg 65%
    Show more